Tracking 25710 objects as of 7-Jul-2022
HD Live streaming from Space Station
objects crossing your sky now

FENGYUN 1C DEB

Track FENGYUN 1C DEB now!
10-day predictions


NORAD ID: 32245
Int'l Code: 1999-025CWT
Perigee: 628.7 km
Apogee: 841.7 km
Inclination: 98.6 °
Period: 99.4 minutes
Semi major axis: 7106 km
RCS: 0.0014 m2 (small)
Launch date: May 10, 1999
Source: People's Republic of China (PRC)
Launch site: Taiyaun Space Center, China (TSC)

Note: This is SATELLITE DEBRIS
aabbcc
Your satellite tracking list
Your tracking list is empty




NASA's NSSDC Master Catalog

Two Line Element Set (TLE):
1 32245U 99025CWT 22187.80454849  .00001618  00000-0  38045-3 0  9992
2 32245  98.5712 315.1986 0149892 253.3597 105.1094 14.49253206790721
Source of the keplerian elements: AFSPC